| time (UTC) | temp F | wind direction | speed MPH | gust MPH | rain 1hr in | rain 24hr in | rain mn in | humidity % | barometer mb |
| 20260507143042 | 55 | 9 | 4.0 | 10.0 | 0.00 | 0.03 | 0.03 | 79 | 1012.2 |
| 20260507141552 | 56 | 360 | 3.0 | 10.0 | 0.00 | 0.03 | 0.03 | 78 | 1012.3 |
| 20260507140106 | 55 | 13 | 5.0 | 11.0 | 0.00 | 0.03 | 0.03 | 77 | 1012.3 |
| 20260507134553 | 55 | 15 | 4.0 | 10.0 | 0.00 | 0.03 | 0.03 | 77 | 1012.2 |
| 20260507133104 | 55 | 346 | 3.0 | 10.0 | 0.00 | 0.03 | 0.03 | 77 | 1012.4 |
| 20260507131545 | 55 | 360 | 5.0 | 9.0 | 0.00 | 0.03 | 0.03 | 78 | 1012.1 |
| 20260507130051 | 55 | 34 | 4.0 | 11.0 | 0.00 | 0.03 | 0.03 | 78 | 1012.2 |
| 20260507124549 | 55 | 344 | 5.0 | 10.0 | 0.00 | 0.03 | 0.03 | 78 | 1012.2 |
| 20260507123053 | 54 | 46 | 4.0 | 9.0 | 0.00 | 0.03 | 0.03 | 78 | 1012.1 |
| 20260507121547 | 54 | 351 | 3.0 | 9.0 | 0.00 | 0.03 | 0.03 | 78 | 1012.2 |
| 20260507120046 | 54 | 25 | 5.0 | 12.0 | 0.00 | 0.03 | 0.03 | 78 | 1012.4 |
| 20260507114547 | 54 | 360 | 8.0 | 14.0 | 0.00 | 0.03 | 0.03 | 77 | 1012.3 |
| 20260507113043 | 54 | 34 | 7.0 | 14.0 | 0.00 | 0.03 | 0.03 | 77 | 1012.1 |
| 20260507111545 | 54 | 13 | 7.0 | 15.0 | 0.00 | 0.03 | 0.03 | 80 | 1011.6 |
| 20260507110043 | 54 | 23 | 7.0 | 15.0 | 0.00 | 0.03 | 0.03 | 80 | 1011.9 |
| 20260507104544 | 54 | 360 | 7.0 | 15.0 | 0.00 | 0.03 | 0.03 | 81 | 1012.0 |
| 20260507103043 | 54 | 5 | 7.0 | 14.0 | 0.00 | 0.03 | 0.03 | 82 | 1011.7 |
| 20260507101546 | 54 | 9 | 4.0 | 13.0 | 0.00 | 0.03 | 0.03 | 84 | 1011.6 |
| 20260507100041 | 54 | 309 | 6.0 | 12.0 | 0.00 | 0.03 | 0.03 | 85 | 1011.5 |
| 20260507094544 | 54 | 360 | 6.0 | 14.0 | 0.00 | 0.03 | 0.03 | 85 | 1011.6 |
| 20260507093042 | 54 | 360 | 7.0 | 15.0 | 0.00 | 0.03 | 0.03 | 85 | 1011.1 |
| 20260507091542 | 54 | 360 | 6.0 | 17.0 | 0.00 | 0.03 | 0.03 | 86 | 1010.8 |
| 20260507090042 | 55 | 360 | 9.0 | 16.0 | 0.00 | 0.03 | 0.03 | 88 | 1010.9 |
| 20260507084552 | 55 | 360 | 8.0 | 17.0 | 0.00 | 0.03 | 0.03 | 88 | 1010.9 |
| 20260507083049 | 55 | 360 | 10.0 | 17.0 | 0.00 | 0.03 | 0.03 | 89 | 1010.4 |
| 20260507081542 | 57 | 360 | 10.0 | 22.0 | 0.00 | 0.03 | 0.03 | 91 | 1010.5 |
| 20260507080116 | 57 | 360 | 8.0 | 18.0 | 0.01 | 0.03 | 0.03 | 91 | 1009.9 |
| 20260507074544 | 58 | 360 | 4.0 | 9.0 | 0.03 | 0.03 | 0.03 | 92 | 1009.4 |
| 20260507073050 | 58 | 360 | 1.0 | 9.0 | 0.03 | 0.03 | 0.03 | 91 | 1009.5 |
| 20260507071559 | 58 | 360 | 3.0 | 10.0 | 0.03 | 0.03 | 0.03 | 90 | 1008.8 |
| 20260507070042 | 59 | 360 | 4.0 | 13.0 | 0.02 | 0.02 | 0.02 | 88 | 1009.8 |
| 20260507064546 | 64 | 339 | 8.0 | 13.0 | 0.00 | 0.00 | 0.00 | 82 | 1009.8 |
| 20260507063042 | 66 | 257 | 3.0 | 9.0 | 0.00 | 0.00 | 0.00 | 84 | 1009.1 |
| 20260507061546 | 66 | 241 | 2.0 | 7.0 | 0.00 | 0.00 | 0.00 | 83 | 1008.8 |
| 20260507060045 | 67 | 229 | 2.0 | 10.0 | 0.00 | 0.00 | 0.00 | 82 | 1009.0 |
| 20260507054551 | 67 | 216 | 2.0 | 7.0 | 0.00 | 0.00 | 0.00 | 82 | 1008.9 |
| 20260507053045 | 67 | 248 | 2.0 | 8.0 | 0.00 | 0.00 | 0.00 | 82 | 1009.3 |
| 20260507051541 | 66 | 231 | 1.0 | 7.0 | 0.00 | 0.00 | 0.00 | 83 | 1009.5 |
| 20260507050041 | 66 | 224 | 1.0 | 7.0 | 0.00 | 0.00 | 0.00 | 83 | 1009.3 |
| 20260507044546 | 66 | 232 | 1.0 | 8.0 | 0.00 | 0.00 | 0.00 | 82 | 1009.7 |
| 20260507043044 | 66 | 229 | 1.0 | 5.0 | 0.00 | 0.00 | 0.00 | 82 | 1009.6 |
| 20260507041547 | 66 | 233 | 2.0 | 7.0 | 0.00 | 0.00 | 0.00 | 83 | 1009.7 |
| 20260507040057 | 66 | 248 | 2.0 | 5.0 | 0.00 | 0.00 | 0.00 | 82 | 1009.5 |
| 20260507034544 | 67 | 247 | 3.0 | 6.0 | 0.00 | 0.00 | 0.00 | 81 | 1009.1 |
| 20260507033043 | 67 | 203 | 3.0 | 7.0 | 0.00 | 0.00 | 0.00 | 81 | 1009.2 |
| 20260507031545 | 67 | 250 | 2.0 | 10.0 | 0.00 | 0.00 | 0.00 | 80 | 1009.4 |
| 20260507030043 | 67 | 226 | 2.0 | 8.0 | 0.00 | 0.00 | 0.00 | 80 | 1009.3 |
| 20260507024542 | 67 | 218 | 3.0 | 7.0 | 0.00 | 0.00 | 0.00 | 80 | 1009.5 |
| 20260507023040 | 68 | 221 | 3.0 | 7.0 | 0.00 | 0.00 | 0.00 | 79 | 1009.7 |
| 20260507021545 | 68 | 259 | 3.0 | 6.0 | 0.00 | 0.00 | 0.00 | 78 | 1009.6 |
| 20260507020047 | 68 | 263 | 3.0 | 9.0 | 0.00 | 0.00 | 0.00 | 78 | 1009.9 |
| 20260507014542 | 68 | 227 | 0.0 | 4.0 | 0.00 | 0.00 | 0.00 | 78 | 1010.1 |
| 20260507013043 | 68 | 227 | 0.0 | 5.0 | 0.00 | 0.00 | 0.00 | 77 | 1009.8 |
| 20260507011553 | 68 | 227 | 2.0 | 5.0 | 0.00 | 0.00 | 0.00 | 76 | 1009.9 |
| 20260507010045 | 69 | 234 | 3.0 | 7.0 | 0.00 | 0.00 | 0.00 | 76 | 1009.8 |
| 20260507004542 | 69 | 232 | 2.0 | 5.0 | 0.00 | 0.00 | 0.00 | 75 | 1009.8 |
| 20260507003043 | 70 | 239 | 4.0 | 10.0 | 0.00 | 0.00 | 0.00 | 74 | 1009.8 |
| 20260507001555 | 70 | 242 | 1.0 | 6.0 | 0.00 | 0.00 | 0.00 | 73 | 1009.5 |
| 20260507000046 | 70 | 218 | 3.0 | 8.0 | 0.00 | 0.00 | 0.00 | 73 | 1009.4 |
| 20260506234546 | 71 | 219 | 4.0 | 9.0 | 0.00 | 0.00 | 0.00 | 72 | 1009.4 |
| 20260506233039 | 71 | 234 | 5.0 | 10.0 | 0.00 | 0.00 | 0.00 | 71 | 1009.4 |
| 20260506231542 | 71 | 227 | 4.0 | 10.0 | 0.00 | 0.00 | 0.00 | 70 | 1009.4 |
| 20260506230048 | 72 | 269 | 5.0 | 16.0 | 0.00 | 0.00 | 0.00 | 70 | 1009.3 |
| 20260506224543 | 72 | 210 | 5.0 | 16.0 | 0.00 | 0.00 | 0.00 | 70 | 1009.4 |
| 20260506223043 | 72 | 214 | 7.0 | 21.0 | 0.00 | 0.00 | 0.00 | 69 | 1009.2 |
| 20260506221543 | 72 | 196 | 7.0 | 16.0 | 0.00 | 0.00 | 0.00 | 70 | 1009.2 |
| 20260506220056 | 72 | 244 | 6.0 | 21.0 | 0.00 | 0.00 | 0.00 | 70 | 1009.2 |
| 20260506214538 | 72 | 252 | 10.0 | 20.0 | 0.00 | 0.00 | 0.00 | 70 | 1009.0 |
| 20260506213044 | 72 | 215 | 11.0 | 21.0 | 0.00 | 0.00 | 0.00 | 70 | 1009.0 |
| 20260506211544 | 71 | 219 | 10.0 | 19.0 | 0.00 | 0.00 | 0.00 | 71 | 1008.9 |
| 20260506210046 | 71 | 206 | 6.0 | 22.0 | 0.00 | 0.00 | 0.00 | 71 | 1008.9 |
| 20260506204550 | 71 | 182 | 12.0 | 21.0 | 0.00 | 0.00 | 0.00 | 71 | 1008.8 |
| 20260506203130 | 72 | 252 | 9.0 | 24.0 | 0.00 | 0.00 | 0.00 | 70 | 1008.3 |
| 20260506201546 | 72 | 208 | 11.0 | 25.0 | 0.00 | 0.00 | 0.00 | 69 | 1008.6 |
| 20260506200048 | 72 | 200 | 11.0 | 24.0 | 0.00 | 0.00 | 0.00 | 70 | 1008.9 |
| 20260506194541 | 72 | 212 | 13.0 | 23.0 | 0.00 | 0.00 | 0.00 | 69 | 1009.0 |
| 20260506193041 | 72 | 182 | 8.0 | 29.0 | 0.00 | 0.00 | 0.00 | 69 | 1009.0 |
| 20260506191551 | 72 | 242 | 11.0 | 28.0 | 0.00 | 0.00 | 0.00 | 68 | 1009.5 |
| 20260506190050 | 71 | 184 | 12.0 | 23.0 | 0.00 | 0.00 | 0.00 | 69 | 1010.0 |
| 20260506184554 | 71 | 250 | 11.0 | 22.0 | 0.00 | 0.00 | 0.00 | 71 | 1010.0 |
| 20260506183044 | 70 | 221 | 8.0 | 23.0 | 0.00 | 0.00 | 0.00 | 73 | 1010.0 |
| 20260506181542 | 69 | 194 | 15.0 | 27.0 | 0.00 | 0.00 | 0.00 | 73 | 1010.3 |
| 20260506180045 | 69 | 223 | 12.0 | 27.0 | 0.00 | 0.00 | 0.00 | 75 | 1010.7 |
| 20260506174538 | 69 | 202 | 12.0 | 27.0 | 0.00 | 0.00 | 0.00 | 73 | 1010.3 |
| 20260506173052 | 70 | 231 | 8.0 | 30.0 | 0.00 | 0.00 | 0.00 | 73 | 1010.4 |
| 20260506171543 | 69 | 229 | 13.0 | 25.0 | 0.00 | 0.00 | 0.00 | 72 | 1010.9 |
| 20260506170046 | 69 | 216 | 12.0 | 25.0 | 0.00 | 0.00 | 0.00 | 71 | 1011.0 |
| 20260506164547 | 70 | 211 | 12.0 | 25.0 | 0.00 | 0.00 | 0.00 | 69 | 1011.4 |
| 20260506163056 | 72 | 206 | 10.0 | 31.0 | 0.00 | 0.00 | 0.00 | 63 | 1011.7 |
| 20260506161542 | 73 | 207 | 12.0 | 25.0 | 0.00 | 0.00 | 0.00 | 61 | 1011.8 |
| 20260506160040 | 74 | 260 | 10.0 | 23.0 | 0.00 | 0.00 | 0.00 | 59 | 1011.8 |
| 20260506154552 | 73 | 213 | 12.0 | 28.0 | 0.00 | 0.00 | 0.00 | 59 | 1011.9 |
| 20260506153042 | 73 | 239 | 11.0 | 31.0 | 0.00 | 0.00 | 0.00 | 60 | 1011.7 |
| 20260506151544 | 72 | 211 | 11.0 | 22.0 | 0.00 | 0.00 | 0.00 | 62 | 1011.9 |
| 20260506150042 | 73 | 223 | 12.0 | 25.0 | 0.00 | 0.00 | 0.00 | 60 | 1011.9 |
| 20260506144547 | 73 | 229 | 8.0 | 25.0 | 0.00 | 0.00 | 0.00 | 61 | 1012.0 |